Wind_Speed
21 22 24 28 28 25 24 27 28 22 25 28 19 31 36 36 30 29 27 29 31 28 26 23 19 19 19 20 18 17 17 18 21 24 27 30 31 29 28 23 23 22 22 18 19 24 27 28 28
22 21 23 24 27 26 22 9 12 21 19 24 29 38 39 39 34 37 22 18 20 25 27 26 26 25 26 24 21 20 23 25 28 30 31 29 27 27 28 28 28 29 24 22 24 30 31 27 25
22 25 23 23 30 32 15 11 21 27 19 24 38 42 42 41 41 45 40 40 35 31 29 28 27 26 26 27 25 26 27 30 33 32 31 32 30 32 31 30 30 28 27 30 31 32 32 28 28
20 23 26 27 31 35 18 20 19 25 23 21 31 34 43 41 37 41 41 38 36 35 35 31 29 30 31 30 29 31 32 34 33 32 31 31 30 30 29 30 26 25 26 28 31 32 29 27 27
21 19 25 28 28 30 27 21 20 24 23 34 43 47 46 38 34 36 40 41 39 37 38 39 38 36 35 34 36 37 39 38 34 34 32 31 29 30 29 27 24 27 29 32 32 30 29 31 30
23 21 24 28 32 32 12 19 10 11 13 16 31 31 33 36 35 36 38 37 40 38 39 40 41 41 41 41 42 43 40 39 38 36 33 34 34 28 24 26 27 29 32 34 33 31 34 34 33
27 22 24 29 38 34 11 19 26 28 24 26 27 26 26 34 39 39 42 40 43 45 45 45 44 44 44 46 44 44 43 40 41 37 34 33 32 28 28 30 30 32 34 32 34 39 39 37 36
32 28 25 28 43 48 30 24 18 47 36 33 31 27 30 30 37 41 44 45 44 44 46 47 47 46 46 47 45 44 45 44 40 39 38 32 28 29 29 31 29 31 32 36 38 38 41 39 34
38 34 35 33 39 52 42 40 21 43 42 40 46 41 44 32 36 41 41 44 43 45 47 48 47 48 47 46 43 44 43 41 39 34 29 28 29 31 33 33 33 32 32 31 33 35 38 37 35
43 40 44 39 34 44 59 49 19 32 35 49 56 57 56 56 43 43 41 42 41 43 43 44 43 43 42 41 39 38 38 36 36 34 35 37 35 34 34 32 30 33 31 35 38 39 41 40 38
44 47 47 44 39 37 38 51 58 34 27 39 41 44 52 56 59 48 41 40 41 44 42 43 43 41 39 38 38 39 38 37 33 33 32 31 30 31 33 34 36 36 38 40 43 44 44 43 40
52 50 52 49 42 40 38 35 38 38 43 26 36 36 40 43 54 52 48 41 39 39 40 41 39 39 39 39 38 35 34 33 32 32 32 34 34 35 36 36 38 43 47 45 46 46 45 44 45
57 56 53 53 46 43 41 37 32 40 36 38 33 21 35 35 37 40 41 37 35 34 36 39 37 40 41 38 38 34 32 34 36 37 37 38 38 39 42 45 47 47 48 50 50 49 48 48 46
59 58 54 56 52 46 42 43 42 42 50 55 42 38 38 42 56 37 33 34 36 36 37 41 39 41 40 39 38 38 38 40 39 40 41 42 42 45 47 48 49 50 51 52 52 52 51 49 49
48 62 58 55 56 51 46 40 43 43 50 55 52 43 40 36 47 51 41 40 43 42 41 45 43 43 42 43 42 43 43 48 47 48 49 50 50 52 51 51 49 50 53 57 55 53 51 49 48
36 59 62 60 57 57 54 45 48 47 52 51 52 47 54 38 44 43 42 45 48 47 46 49 45 43 45 48 48 48 50 51 53 53 55 56 56 51 50 47 48 55 56 55 54 53 51 49 46
34 49 64 61 54 56 57 52 54 54 56 55 52 58 51 52 48 46 45 50 54 54 52 52 53 50 51 51 52 51 51 54 57 59 57 57 53 45 49 52 55 56 57 56 52 50 47 47 44
36 36 51 54 57 58 54 55 59 60 59 51 47 55 56 55 55 54 50 51 55 57 57 57 58 57 52 50 54 56 57 59 60 61 54 54 50 48 53 58 60 58 57 53 50 47 45 44 44
39 39 51 51 54 57 60 57 59 61 63 57 55 55 59 51 51 54 55 60 61 61 60 57 59 59 55 56 58 59 62 60 61 59 55 54 55 53 60 63 62 60 57 54 51 48 47 47 45
46 43 46 57 65 62 64 54 65 64 64 62 62 64 63 58 52 50 60 65 67 66 64 61 60 62 60 59 60 60 60 60 59 58 58 58 60 61 64 67 63 61 58 56 53 50 51 50 49
53 51 51 53 61 60 63 65 57 65 59 58 58 58 61 65 66 50 62 58 56 55 60 60 59 61 63 63 65 62 60 60 61 62 64 62 64 67 69 67 63 62 62 58 55 53 54 54 53
50 58 58 56 59 57 61 65 62 59 65 64 63 63 65 65 66 67 56 56 50 50 60 54 66 71 68 70 68 64 64 64 65 71 72 68 70 69 69 66 64 65 63 59 57 57 59 61 60
57 57 56 59 60 58 65 62 65 68 66 70 71 72 75 74 77 76 74 81 71 61 61 71 74 67 67 68 72 71 69 70 76 75 72 69 71 71 70 69 68 67 64 62 62 63 65 67 67
60 62 62 60 65 64 70 78 72 81 80 79 81 80 78 75 78 80 82 77 71 67 74 74 76 78 77 77 77 76 76 75 77 77 74 72 72 74 72 70 69 69 67 68 69 70 70 72 72
66 64 64 67 68 65 80 77 76 80 81 83 84 88 83 74 75 72 73 73 73 76 80 83 84 82 84 80 81 80 82 81 79 76 75 72 74 76 74 74 73 74 74 75 76 78 78 76 75
71 72 72 74 73 69 75 76 77 80 85 84 87 87 83 69 71 67 70 72 77 80 79 88 85 82 86 81 82 89 78 82 82 77 76 74 78 80 79 78 79 80 81 81 81 81 82 82 80
79 83 82 81 78 73 75 78 77 78 80 85 84 85 86 71 64 61 65 62 72 75 81 70 81 87 88 83 83 77 81 81 76 77 80 79 81 85 83 84 86 86 86 86 87 86 86 85 86
83 88 89 90 84 80 77 80 80 81 80 83 82 85 85 80 68 57 74 61 67 77 86 88 92 93 93 84 82 92 95 92 89 89 89 87 87 90 91 91 92 93 93 93 92 91 90 91 90
95 92 92 94 90 87 85 84 86 89 89 87 85 81 82 82 79 73 70 79 91 96 96 101 102 104 109 101 96 94 95 93 94 95 94 93 93 95 96 98 99 99 98 97 96 95 95 92 91
100 101 101 99 98 94 94 94 97 91 90 90 90 87 87 89 88 65 65 71 79 83 87 95 98 98 95 101 102 104 105 103 101 101 99 100 100 101 102 102 102 102 101 99 98 97 96 94 92
Wind_Direction
224 219 212 212 204 204 211 226 236 267 265 257 275 263 246 238 241 254 261 269 261 260 263 271 277 276 282 284 290 289 286 290 296 301 301 297 295 293 303 305 304 303 307 303 305 309 311 317 315
226 223 213 209 197 198 191 215 236 268 265 255 257 270 254 248 243 252 261 257 272 272 268 273 278 281 282 285 288 290 291 295 301 303 298 297 299 296 299 297 298 300 297 296 300 305 309 311 321
221 224 217 205 187 181 182 223 249 243 256 269 261 265 267 251 251 256 254 254 270 273 275 277 278 279 278 279 284 289 293 296 297 297 293 298 296 296 295 295 295 298 296 291 295 301 306 309 318
215 217 214 204 195 192 174 198 196 221 246 262 254 261 264 266 248 250 257 262 266 272 272 276 277 279 277 280 282 289 293 297 293 293 292 293 296 299 294 293 294 295 295 296 296 300 304 309 320
227 219 210 203 196 191 200 210 223 248 276 246 270 271 270 256 250 249 251 259 265 268 270 271 273 275 278 282 284 288 290 290 289 290 288 290 292 296 295 291 286 291 290 292 294 298 303 309 313
234 221 214 203 190 176 176 198 165 196 132 244 249 276 255 250 244 250 256 259 264 268 267 271 273 275 278 280 282 285 288 287 285 285 282 284 289 287 289 285 288 290 291 290 288 295 301 304 307
235 234 219 198 192 171 120 204 197 219 221 217 266 262 268 249 249 255 259 260 264 266 267 268 272 274 276 278 279 281 282 283 282 282 280 283 283 283 288 287 287 291 292 288 291 297 300 299 303
231 227 228 211 197 194 155 162 198 239 232 224 247 269 276 270 261 260 261 261 263 264 267 269 269 273 274 274 275 279 279 280 281 280 282 278 279 286 287 283 285 292 295 296 299 302 301 302 301
232 227 229 224 205 204 178 176 305 226 236 251 259 255 271 275 261 258 258 262 263 265 267 269 270 271 272 274 276 279 280 284 281 278 275 273 276 278 285 289 295 297 295 300 303 304 304 305 306
232 228 230 228 224 206 211 197 151 245 262 271 269 271 272 266 268 265 259 262 264 267 269 270 270 272 274 275 277 279 281 278 277 271 270 283 285 288 290 290 292 295 301 303 306 305 304 305 305
233 229 232 231 228 225 221 228 224 220 202 255 277 269 268 268 270 264 260 259 267 270 271 270 273 274 275 276 276 277 275 275 274 274 275 280 288 292 292 294 291 294 298 300 304 305 303 303 303
232 230 231 233 230 226 227 222 215 211 221 232 244 244 263 271 265 260 263 262 265 269 274 275 276 276 274 275 276 272 274 275 275 278 285 287 292 294 294 295 293 292 293 298 301 305 302 301 302
230 231 230 233 231 230 229 226 208 199 180 181 219 246 263 266 262 265 263 265 268 271 274 276 277 275 275 274 274 274 276 278 278 281 286 291 293 295 296 297 299 297 295 295 297 298 296 296 294
228 229 231 230 233 229 235 228 218 209 203 217 233 248 259 270 264 251 265 269 276 276 277 275 275 273 273 272 271 275 276 277 282 283 286 286 289 294 296 295 298 294 293 294 298 299 297 295 293
238 228 229 231 231 230 229 235 230 218 206 232 245 250 245 262 250 265 275 276 274 275 276 276 272 272 273 273 276 276 275 278 282 284 285 288 290 294 294 291 291 289 292 296 297 297 295 294 293
255 229 229 227 229 230 230 226 239 221 221 237 250 257 246 250 258 270 271 273 271 271 273 272 269 271 270 271 273 273 277 279 280 283 286 288 290 292 289 288 289 296 297 297 298 297 296 294 292
264 236 230 231 228 235 234 230 235 231 227 232 247 252 241 267 270 270 270 272 272 276 275 272 272 272 272 275 276 278 279 282 283 284 287 287 290 288 288 289 294 297 297 298 296 294 293 290 290
272 241 235 239 235 229 237 234 240 240 238 234 254 261 267 266 268 270 273 272 272 273 273 265 264 267 269 273 276 280 282 284 283 285 288 286 287 286 286 290 293 295 294 295 293 292 290 289 289
258 252 231 229 236 228 229 232 238 242 251 247 247 250 261 265 268 271 272 267 266 270 267 264 266 267 270 274 276 278 280 280 281 285 285 279 282 283 281 287 292 290 292 292 289 286 286 286 286
250 250 246 240 239 237 231 235 231 240 246 250 252 257 258 255 261 265 272 271 268 266 264 263 265 269 270 273 273 273 276 278 279 281 279 279 280 280 282 286 287 287 288 288 285 286 285 285 286
255 248 244 244 244 243 239 239 236 237 238 243 246 249 254 255 254 245 261 266 270 273 266 267 268 270 273 273 273 275 275 275 277 277 278 279 279 279 281 282 284 283 285 285 284 284 285 286 285
257 253 248 247 249 249 247 240 242 241 244 243 243 241 243 246 247 248 247 259 271 256 258 259 272 277 277 277 277 275 275 276 277 278 279 279 278 278 278 279 279 280 283 282 283 284 285 285 285
259 261 261 254 252 251 250 246 242 247 246 241 239 239 243 246 248 253 252 257 259 266 259 271 273 271 272 271 274 277 276 274 274 275 277 278 278 278 277 277 278 280 280 280 281 283 284 285 287
258 259 256 256 250 246 248 246 243 243 244 248 250 250 250 254 254 254 259 257 260 258 270 276 273 272 272 271 273 273 274 272 273 275 277 278 278 277 278 280 281 281 281 281 281 282 283 285 286
255 256 257 253 250 248 249 248 245 250 249 250 251 253 254 254 258 258 258 268 270 267 270 271 271 271 271 272 274 275 273 273 274 276 275 277 276 277 279 279 279 280 281 282 283 285 286 286 285
261 258 255 252 252 249 252 252 251 249 253 252 252 255 257 255 255 257 259 262 265 267 277 273 275 268 269 269 269 273 270 272 272 273 274 275 277 277 279 281 282 282 282 284 284 285 285 284 285
258 258 257 255 251 252 254 256 254 255 255 257 258 259 259 255 256 258 259 257 262 265 266 260 259 264 268 267 266 263 270 272 270 273 275 275 276 278 280 280 281 282 282 283 283 285 286 286 285
256 256 257 256 254 250 249 256 260 257 255 257 258 260 261 261 252 244 249 254 247 242 251 260 264 266 265 260 256 264 269 273 272 274 275 275 275 277 279 280 280 281 283 283 284 284 285 286 286
262 257 257 259 259 257 257 255 255 256 257 258 258 258 262 264 263 258 261 257 254 252 256 260 264 265 266 265 266 268 271 272 272 274 275 277 277 277 279 280 280 281 282 284 285 284 284 284 284
257 260 260 257 257 256 256 256 254 254 255 256 259 259 258 260 260 245 246 251 252 252 251 254 258 262 264 268 270 270 270 272 274 275 277 277 278 279 279 279 280 280 281 281 283 283 283 283 283
Height
10944 10947 10950 10953 10957 10959 10959 10960 10962 10965 10968 10971 10971 10974 10976 10980 10982 10979 10981 10981 10983 10984 10985 10986 10985 10985 10985 10985 10986 10985 10985 10984 10984 10984 10983 10982 10981 10980 10979 10977 10976 10974 10973 10970 10968 10966 10964 10961 10959
10941 10943 10946 10950 10954 10954 10956 10957 10959 10961 10967 10970 10965 10970 10972 10974 10979 10976 10978 10978 10980 10982 10982 10982 10982 10982 10982 10982 10982 10982 10981 10981 10980 10980 10979 10977 10976 10975 10974 10973 10972 10971 10970 10966 10964 10962 10960 10958 10956
10938 10940 10943 10946 10950 10952 10955 10954 10955 10956 10964 10969 10959 10967 10969 10969 10973 10969 10975 10973 10975 10978 10979 10979 10979 10978 10978 10977 10977 10978 10977 10977 10976 10975 10974 10973 10972 10971 10970 10969 10969 10967 10965 10962 10959 10958 10956 10954 10953
10935 10938 10940 10941 10945 10951 10955 10954 10952 10955 10959 10967 10962 10962 10961 10964 10966 10964 10968 10966 10971 10973 10976 10976 10975 10974 10974 10973 10972 10972 10973 10972 10972 10970 10969 10968 10967 10965 10965 10964 10964 10963 10960 10957 10955 10953 10951 10950 10950
10931 10934 10936 10939 10945 10949 10950 10950 10953 10955 10960 10969 10959 10957 10954 10955 10959 10961 10962 10964 10966 10968 10969 10970 10970 10970 10969 10968 10968 10967 10968 10968 10967 10966 10964 10963 10961 10961 10961 10960 10959 10958 10956 10952 10950 10949 10947 10946 10946
10927 10930 10932 10937 10942 10945 10942 10947 10956 10957 10956 10967 10947 10946 10946 10948 10954 10957 10955 10960 10960 10963 10964 10964 10964 10964 10964 10963 10963 10962 10961 10961 10961 10961 10959 10958 10957 10956 10955 10955 10954 10953 10950 10946 10944 10943 10942 10941 10941
10924 10926 10928 10934 10938 10939 10935 10947 10946 10947 10953 10936 10934 10940 10942 10943 10949 10952 10948 10954 10954 10956 10957 10957 10957 10957 10958 10957 10956 10955 10955 10955 10955 10955 10954 10952 10951 10950 10950 10949 10948 10946 10944 10940 10938 10937 10935 10934 10935
10917 10922 10924 10927 10931 10933 10931 10936 10937 10946 10943 10940 10936 10940 10940 10938 10943 10949 10945 10946 10949 10948 10950 10950 10951 10952 10951 10951 10949 10949 10949 10948 10949 10948 10947 10946 10945 10944 10944 10944 10942 10940 10939 10935 10932 10930 10928 10926 10927
10911 10915 10917 10919 10924 10928 10928 10927 10950 10940 10942 10943 10940 10941 10937 10935 10934 10939 10939 10936 10941 10942 10943 10943 10944 10945 10945 10945 10943 10943 10943 10942 10942 10941 10941 10941 10940 10939 10937 10936 10936 10935 10933 10929 10926 10924 10922 10920 10919
10903 10908 10907 10914 10919 10924 10923 10925 10948 10952 10954 10947 10936 10938 10939 10935 10931 10930 10936 10931 10933 10935 10937 10937 10937 10939 10939 10938 10937 10937 10936 10936 10935 10935 10935 10934 10934 10933 10932 10931 10929 10928 10926 10923 10919 10917 10914 10913 10912
10895 10896 10900 10906 10912 10916 10920 10922 10935 10952 10947 10946 10933 10925 10926 10930 10932 10926 10925 10928 10927 10928 10930 10930 10931 10932 10933 10932 10931 10931 10930 10929 10928 10928 10927 10927 10927 10927 10925 10926 10923 10921 10919 10916 10913 10910 10907 10904 10904
10884 10887 10891 10894 10902 10907 10908 10919 10934 10941 10939 10939 10920 10899 10908 10916 10922 10921 10919 10919 10920 10921 10922 10924 10925 10925 10925 10926 10925 10925 10923 10923 10922 10921 10920 10919 10919 10919 10917 10918 10917 10915 10912 10910 10906 10904 10899 10896 10894
10870 10875 10882 10884 10891 10896 10897 10912 10926 10926 10921 10909 10909 10901 10902 10905 10914 10917 10912 10911 10914 10914 10915 10915 10920 10918 10917 10920 10918 10918 10917 10916 10914 10914 10913 10911 10911 10911 10910 10908 10908 10906 10902 10901 10899 10898 10894 10889 10886
10856 10863 10871 10876 10880 10882 10887 10897 10909 10912 10910 10898 10898 10894 10900 10900 10908 10909 10906 10906 10907 10905 10906 10905 10912 10911 10911 10912 10911 10911 10911 10907 10907 10907 10906 10905 10904 10903 10902 10900 10899 10896 10893 10890 10889 10887 10885 10882 10877
10844 10851 10859 10864 10868 10872 10873 10883 10891 10899 10897 10890 10887 10889 10893 10898 10902 10895 10892 10895 10897 10896 10897 10896 10902 10902 10903 10902 10904 10903 10904 10899 10899 10897 10896 10896 10897 10895 10893 10890 10891 10887 10885 10882 10879 10876 10873 10871 10868
10833 10839 10846 10847 10857 10859 10863 10870 10872 10883 10886 10886 10884 10885 10891 10891 10892 10885 10882 10886 10890 10888 10890 10889 10889 10893 10894 10893 10894 10895 10893 10891 10890 10888 10888 10886 10886 10886 10882 10881 10882 10877 10873 10872 10869 10864 10862 10859 10858
10824 10827 10832 10843 10852 10851 10858 10859 10851 10861 10868 10878 10883 10879 10879 10882 10877 10873 10872 10875 10879 10875 10880 10881 10878 10883 10883 10884 10882 10884 10885 10881 10877 10877 10880 10874 10875 10875 10872 10870 10871 10867 10863 10860 10858 10854 10852 10848 10848
10816 10819 10827 10832 10836 10843 10846 10850 10843 10849 10852 10861 10863 10861 10863 10867 10864 10861 10863 10866 10868 10865 10868 10869 10867 10871 10871 10873 10872 10873 10873 10868 10865 10864 10869 10862 10863 10865 10860 10859 10858 10856 10852 10850 10848 10845 10841 10838 10837
10807 10810 10812 10815 10816 10829 10834 10836 10836 10835 10835 10851 10852 10850 10853 10855 10851 10849 10852 10853 10853 10850 10854 10857 10856 10859 10861 10860 10860 10860 10860 10857 10855 10855 10855 10852 10853 10855 10848 10846 10847 10843 10841 10839 10837 10835 10831 10829 10827
10798 10799 10803 10805 10805 10817 10823 10826 10826 10826 10828 10832 10837 10834 10837 10844 10843 10846 10841 10837 10838 10837 10840 10843 10845 10844 10848 10849 10847 10847 10849 10844 10844 10844 10841 10842 10840 10841 10839 10835 10834 10829 10829 10829 10826 10824 10820 10818 10816
10785 10788 10790 10793 10791 10803 10810 10816 10818 10816 10816 10819 10824 10823 10822 10825 10828 10830 10828 10826 10827 10828 10830 10831 10830 10830 10830 10833 10831 10834 10835 10832 10832 10829 10828 10832 10829 10826 10826 10822 10823 10816 10815 10815 10814 10812 10808 10805 10804
10775 10773 10777 10782 10784 10792 10793 10805 10808 10804 10804 10802 10803 10807 10804 10805 10808 10811 10813 10813 10817 10819 10818 10820 10816 10814 10815 10814 10814 10816 10819 10819 10815 10811 10814 10818 10814 10812 10809 10808 10807 10803 10801 10800 10799 10798 10795 10790 10791
10760 10767 10771 10772 10775 10780 10780 10784 10791 10782 10782 10779 10774 10778 10786 10793 10798 10798 10801 10806 10808 10809 10809 10809 10803 10799 10798 10798 10798 10799 10803 10805 10798 10796 10798 10801 10798 10794 10792 10792 10790 10788 10786 10786 10785 10785 10782 10777 10775
10745 10750 10751 10753 10756 10765 10755 10745 10765 10755 10763 10769 10771 10778 10787 10795 10798 10799 10792 10804 10804 10796 10794 10790 10788 10784 10780 10779 10778 10780 10784 10785 10781 10782 10783 10782 10780 10773 10774 10773 10773 10772 10772 10770 10769 10768 10767 10764 10760
10726 10730 10732 10733 10731 10741 10726 10738 10747 10742 10742 10751 10756 10748 10760 10784 10784 10787 10787 10787 10782 10779 10777 10774 10769 10762 10760 10761 10762 10763 10764 10763 10762 10767 10766 10766 10760 10756 10757 10757 10757 10755 10755 10753 10751 10749 10748 10745 10742
10704 10706 10708 10704 10707 10721 10714 10720 10728 10729 10722 10729 10732 10735 10743 10767 10766 10772 10771 10771 10770 10764 10757 10749 10747 10742 10743 10741 10739 10742 10746 10743 10743 10747 10753 10751 10739 10738 10741 10740 10738 10735 10734 10733 10731 10729 10726 10723 10722
10679 10677 10681 10682 10690 10703 10701 10697 10711 10714 10713 10704 10712 10716 10719 10747 10754 10763 10766 10767 10763 10755 10736 10727 10721 10720 10721 10720 10721 10724 10724 10724 10725 10729 10735 10734 10724 10717 10723 10720 10715 10714 10713 10711 10708 10707 10704 10700 10699
10653 10653 10650 10651 10669 10678 10686 10683 10685 10687 10688 10684 10696 10694 10697 10709 10737 10752 10750 10744 10738 10726 10711 10707 10698 10696 10698 10703 10702 10701 10702 10704 10707 10711 10711 10711 10707 10702 10699 10697 10695 10692 10691 10687 10686 10684 10681 10677 10676
10622 10632 10632 10632 10644 10655 10665 10670 10661 10657 10664 10668 10672 10680 10679 10684 10696 10713 10719 10711 10700 10697 10690 10686 10680 10671 10666 10673 10678 10682 10681 10681 10682 10686 10689 10688 10684 10681 10678 10674 10670 10667 10666 10664 10661 10658 10656 10653 10650
10595 10600 10601 10607 10613 10627 10630 10634 10624 10643 10647 10647 10649 10656 10659 10656 10661 10689 10664 10673 10681 10681 10680 10668 10658 10653 10651 10652 10657 10657 10657 10655 10658 10660 10662 10659 10658 10657 10654 10652 10647 10643 10641 10640 10637 10633 10630 10627 10624